{"data":{"norad_id":32794,"intl_designator":"2008-022A","name":"AMOS-3","alt_names":[],"object_type":"PAYLOAD","status":"ACTIVE","operator":null,"country":"ISRA","launch_date":"2008-04-28","launch_site_code":"TYMSC","launch_vehicle":null,"mission":null,"orbit_class":"UNKNOWN","rcs_meters":42.973,"size_class":null,"mass_kg":null,"dimensions":null,"purposes":["comms"],"wikipedia_slug":null,"has_3d_model":false,"image_url":null,"decayed_at":null,"tle_current":{"epoch":"2026-05-25T03:51:01.647072Z","epoch_age_seconds":58370,"freshness":"FRESH","line1":"1 32794U 08022A   26145.16043573  .00000145  00000+0  00000+0 0  9992","line2":"2 32794   0.3979  86.5297 0001244  57.1413 179.2495  1.00464686 82107","mean_motion":1.00464686,"eccentricity":0.0001244,"inclination_deg":0.3979,"raan_deg":86.5297,"arg_perigee_deg":57.1413,"mean_anomaly_deg":179.2495,"bstar":0,"rev_number":8210,"period_min":1433.3394721405,"perigee_km":35727.365778021,"apogee_km":35737.84293047,"semimajor_km":42110.741354245,"source":"CELESTRAK","updated_at":"2026-05-25T13:38:13.858204Z"}}}